[[{"header":{"parameterUnit":"m.s-1","parameterCategory":1,"la1":30.2992,"la2":30.254,"lo1":-89.0895,"lo2":-89.0443,"dy":0.0025,"dx":0.0025,"nx":19,"ny":19,"refTime":"2026-05-07T03:00:00:Z","depth":0,"parameterNumber":2,"parameterNumberName":"U-component_of_WINDS"},"data":[0,0,0,1.0036,1.0036,1.0006,1.0006,0.9982,0.9981,0,0,0,0,0,0,0,0,0,0,0,1.0052,1.0052,1.0036,1.0036,1.0006,1.0006,0.9982,0.9981,0,0,0,0,0,0,0,0,0,0,0,1.0052,1.0052,1.0053,1.0036,1.0006,1.0006,0.9982,0.9999,0,0,0,0,0,0,0,0,0,0,1.0026,1.0048,1.0052,1.0053,1.0036,1.0006,1.0006,1.0,0.9998,1.0,0,1.0004,0,0.9992,0.9981,0.9981,0,0,0,1.003,1.0049,1.0035,1.0053,1.0035,1.0007,1.0018,0.9999,0.9997,0.9998,1.0004,1.0002,0.9992,0.9981,0.9981,1.0012,1.0012,0,0,1.0032,1.0051,1.0036,1.0034,1.0039,1.0019,1.0017,0.9997,1.0005,1.0003,1.0001,0.9992,0.998,0.998,1.0011,1.0012,0,0,0,1.004,1.0053,1.0038,1.0035,1.0029,1.0018,1.0016,1.0005,0.9999,1.0001,0.9991,0.998,0.998,1.0011,1.0011,1.005,0,0,0,1.0041,1.0057,1.0039,1.0051,1.0029,1.0017,1.0025,1.0001,0.9998,0.9992,0.998,0.998,1.001,1.0011,1.0048,1.0065,0,0,0,1.0052,1.0058,1.0057,1.0052,1.004,1.0016,1.0009,0.9999,0.9992,0.9981,0.998,1.001,1.0011,1.0046,1.0062,1.0079,0,0,0,1.0069,1.0091,1.0058,1.0079,1.004,1.0041,1.0009,1.0008,1.0003,0.998,1.001,1.0011,1.0046,1.006,1.0077,1.0097,1.0107,0,0,1.0108,1.0097,1.0108,1.0077,1.0089,1.0044,1.0061,1.0038,1.0019,1.0015,1.0016,1.0049,1.0062,1.0079,1.0157,1.0165,0,0,0,1.0127,1.0136,1.0134,1.0131,1.0114,1.0101,1.0073,1.0065,1.006,1.0021,1.0059,1.0066,1.0075,1.0084,1.0091,1.0097,1.0016,1.0016,1.0016,1.021,1.0185,1.0202,1.0174,1.0171,1.0143,1.0138,1.0122,1.0098,1.0107,1.0106,1.0156,1.0166,1.0171,1.0179,1.0114,1.0114,1.0114,1.0115,1.0265,1.0273,1.0241,1.0246,1.022,1.0224,1.0199,1.0181,1.0181,1.0155,1.0162,1.0134,1.0181,1.0186,1.0117,1.0117,1.0116,1.0116,1.0116,1.0316,1.0316,1.0306,1.0298,1.0295,1.0266,1.0268,1.0245,1.0222,1.0229,1.0225,1.0224,1.022,1.0229,1.0229,1.0229,1.0229,1.023,1.023,1.0373,1.036,1.0365,1.035,1.0345,1.0335,1.0308,1.0302,1.029,1.0273,1.0272,1.0248,1.019,1.0177,1.0232,1.0232,1.0231,1.0231,1.0231,1.0437,1.0419,1.0426,1.0421,1.0402,1.0401,1.0372,1.0363,1.0354,1.0356,1.033,1.0292,1.0279,1.0273,1.0261,1.0336,1.0336,1.0336,1.0336,1.0479,1.0471,1.0473,1.0467,1.0458,1.0433,1.0442,1.0422,1.0398,1.0392,1.0378,1.036,1.0355,1.0345,1.0338,1.0326,1.0415,1.0415,1.0415,1.0517,1.0507,1.0519,1.0496,1.048,1.0467,1.0475,1.047,1.0439,1.0418,1.0386,1.0383,1.0354,1.0346,1.0324,1.0313,1.0292,0,0]},{"header":{"parameterUnit":"m.s-1","parameterCategory":1,"la1":30.2992,"la2":30.254,"lo1":-89.0895,"lo2":-89.0443,"dy":0.0025,"dx":0.0025,"nx":19,"ny":19,"refTime":"2026-05-07T03:00:00:Z","depth":0,"parameterNumber":3,"parameterNumberName":"V-component_of_WINDS"},"data":[0,0,0,7.5198,7.5204,7.5487,7.5488,7.5827,7.583,0,0,0,0,0,0,0,0,0,0,0,7.5106,7.5108,7.5198,7.5205,7.5486,7.5488,7.5826,7.583,0,0,0,0,0,0,0,0,0,0,0,7.5105,7.5107,7.511,7.5206,7.5486,7.5488,7.5825,7.5619,0,0,0,0,0,0,0,0,0,0,7.5349,7.5255,7.5107,7.511,7.5207,7.5486,7.5488,7.561,7.5632,7.5691,0,7.5744,0,7.5793,7.5851,7.5852,0,0,0,7.521,7.5237,7.5321,7.511,7.521,7.5485,7.5361,7.5623,7.5648,7.5721,7.5749,7.5762,7.5798,7.5853,7.5855,7.6185,7.6186,0,0,7.5195,7.515,7.5304,7.5337,7.5297,7.5352,7.537,7.5638,7.5665,7.5751,7.5771,7.5804,7.5856,7.5858,7.6184,7.6186,0,0,0,7.5146,7.5139,7.5218,7.5323,7.5376,7.536,7.538,7.5653,7.5683,7.5774,7.5808,7.5857,7.5861,7.6183,7.6185,7.6207,0,0,0,7.5137,7.5111,7.5211,7.5186,7.5371,7.5519,7.5389,7.5664,7.5696,7.5806,7.5858,7.5865,7.6181,7.6184,7.6204,7.6224,0,0,0,7.509,7.5106,7.5144,7.5183,7.5304,7.5516,7.5561,7.5672,7.5716,7.5853,7.5865,7.6181,7.6183,7.6201,7.6219,7.63,0,0,0,7.5026,7.5157,7.5143,7.5302,7.5301,7.5529,7.556,7.573,7.585,7.5859,7.6182,7.6184,7.62,7.6216,7.6296,7.636,7.6382,0,0,7.5166,7.5172,7.5269,7.5266,7.5485,7.5489,7.571,7.586,7.5911,7.609,7.6098,7.6205,7.6219,7.6299,7.6523,7.654,0,0,0,7.5298,7.5368,7.5435,7.555,7.567,7.5774,7.5896,7.5951,7.6106,7.5995,7.6257,7.6266,7.6315,7.6347,7.6362,7.6407,7.6198,7.6197,7.6197,7.5431,7.5494,7.5659,7.5755,7.5865,7.5991,7.6085,7.6181,7.6208,7.6268,7.6322,7.6451,7.6487,7.6499,7.6544,7.636,7.636,7.636,7.6361,7.5642,7.575,7.5788,7.5961,7.6025,7.6169,7.6294,7.6309,7.6451,7.6415,7.6461,7.6416,7.6516,7.6559,7.6363,7.6362,7.6362,7.6362,7.6362,7.5737,7.58,7.5868,7.6042,7.6167,7.6259,7.6395,7.6447,7.6496,7.6542,7.6604,7.6604,7.661,7.6568,7.6569,7.6569,7.657,7.657,7.657,7.5808,7.5884,7.5995,7.6136,7.6217,7.633,7.6458,7.6538,7.6639,7.6666,7.6667,7.6687,7.6515,7.6471,7.6577,7.6576,7.6575,7.6574,7.6574,7.5999,7.5965,7.6135,7.6217,7.6387,7.6508,7.6574,7.6733,7.6806,7.6872,7.6884,7.6748,7.6756,7.6745,7.6708,7.687,7.687,7.687,7.687,7.6078,7.6089,7.6277,7.6405,7.6535,7.6613,7.6801,7.6901,7.6998,7.7047,7.7031,7.6987,7.6973,7.699,7.6973,7.694,7.7157,7.7157,7.7157,7.62,7.6226,7.6378,7.6477,7.6614,7.6729,7.6908,7.705,7.7152,7.717,7.7086,7.7074,7.7004,7.6978,7.6993,7.6966,7.6906,0,0]}]]